Regional Weather Roundup
Issued by NWS

Home | Current Version | Previous Version | Text Only | Print | Product List | Glossary Off
Versions: 1 2 3 4 5 6 7 8 9 10 11 12 13 14 15 16 17 18 19 20 21 22 23 24 25 26 27 28 29 30 31 32 33 34 35 36 37 38 39 40 41 42 43 44 45 46 47 48 49 50

605
ASUS43 KMPX 240101
RWRMN
WEATHER ROUNDUP FOR MINNESOTA
NATIONAL WEATHER SERVICE TWIN CITIES/CHANHASSEN MN
800 PM CDT SUN APR 23 2017


NOTE: "FAIR" INDICATES FEW OR NO CLOUDS BELOW 12,000 FEET WITH NO
SIGNIFICANT WEATHER AND/OR OBSTRUCTIONS TO VISIBILITY. N/A MEANS
CURRENT SKY AND/OR WEATHER CONDITIONS ARE NOT AVAILABLE.

MNZ060>063-068>070-240200-
   Twin Cities Metro

CITY           SKY/WX    TMP DP  RH WIND       PRES   REMARKS
TWIN CITIES    MOCLDY    66  35  31 SE8       29.86F
ST PAUL        MOCLDY    64  37  36 SE8       29.87F
CRYSTAL        MOCLDY    56  39  53 NE9       29.87S
LAKEVILLE      MOCLDY    64  34  32 S5        29.87S
EDEN PRAIRIE   MOCLDY    68  28  22 S12       29.84F
SOUTH ST PAUL  CLOUDY    67  33  29 E5        29.86F
LAKE ELMO      FAIR      63  41  45 E7        29.88F
$$
MNZ001>005-007-008-013>017-022>024-027-028-240200-
   Northwest Minnesota

CITY           SKY/WX    TMP DP  RH WIND       PRES   REMARKS
BEMIDJI        CLOUDY    32  29  88 NE14      30.02F WCI  22
HALLOCK        CLOUDY    37  14  38 E13       30.06F
ROSEAU         CLOUDY    36  19  51 E12       30.08S
WARROAD        CLOUDY    36  21  55 NE13      30.08F
THIEF RVR FALL LGT SNOW  30  27  88 E16G26    30.04F FOG     WCI  19
CROOKSTON      CLOUDY    34  28  80 E16G25    30.02S WCI  23
FOSSTON        CLOUDY    32  27  80 NE14      29.99F WCI  22
DETROIT LAKES  CLOUDY    36  32  87 E10G21    29.93F
MOORHEAD       PTCLDY    37  32  81 NE23      29.93S
PARK RAPIDS    CLOUDY    35  29  78 E17G26    29.96F WCI  25
MAHNOMEN       CLOUDY    34  30  85 E20G26    29.95F WCI  23
$$
MNZ006-009>011-018-025>026-240200-
   North Central Minnesota

CITY           SKY/WX    TMP DP  RH WIND       PRES   REMARKS
BAUDETTE       CLOUDY    36  12  37 E10       30.07F
FLAG ISLAND    CLOUDY    36  10  35 E5        30.09F
INTL FALLS     CLOUDY    37  15  40 E5        30.09F
WASKISH        FLURRIES  30  28  93 E10       30.07F WCI  21
BIG FORK       CLOUDY    32  28  86 E5        30.07F WCI  27
LONGVILLE      CLOUDY    34  34 100 E5        30.00F WCI  30
GRAND RAPIDS   CLOUDY    34  30  85 E7        30.05F WCI  28
CRANE LAKE     CLOUDY    36  18  48 CALM      30.13S
ORR            CLOUDY    32  27  80 MISG      30.07F
COOK           CLOUDY    32  30  93 CALM      30.10F
WALKER         CLOUDY    33  30  87 E10G16    30.01F WCI  25
$$
MNZ012-019>021-037-240200-
   Northeast Minnesota

CITY           SKY/WX    TMP DP  RH WIND       PRES   REMARKS
DULUTH         CLOUDY    32  24  72 E15       30.07F WCI  22
ELY            CLOUDY    32  30  93 E5        30.11S WCI  27
HIBBING        CLOUDY    33  30  88 E9        30.06F WCI  25
EVELETH        CLOUDY    34  28  77 E7        30.09F WCI  28
DULUTH HARBOR  CLOUDY    36  30  80 NE24      30.11S
TWO HARBORS    CLOUDY    36  28  75 NE9G18    30.09F
SILVER BAY     CLOUDY    32  28  86 NE7       30.11F WCI  26
GRAND MARAIS     N/A     33  25  72 E5        30.18F WCI  29
G MARAIS ARPRT CLOUDY    27  19  74 E6        30.12F WCI  20
$$
MNZ029>031-032-039>041-046>048-054>057-064-240200-
   West Central Minnesota

CITY           SKY/WX    TMP DP  RH WIND       PRES   REMARKS
FERGUS FALLS   CLOUDY    43  36  75 E17G31    29.84F
WHEATON        PTCLDY    54  39  58 NE17G25   29.81S
MORRIS         CLOUDY    54  43  66 E23G32    29.80F
ALEXANDRIA     MOCLDY    47  37  68 E16       29.88S
ELBOW LAKE     FAIR      47  38  71 NE18G26   29.84F
WADENA         CLOUDY    37  32  81 E14G22    29.93S
GLENWOOD       PTCLDY    48  39  71 NE24      29.87S
APPLETON       CLOUDY    68  28  22 S6        29.78S
BENSON         PTCLDY    61  37  41 E13G20    29.83R
ORTONVILLE     CLEAR     66  34  30 S7        29.76F
MADISON        PTCLDY    70  30  23 S8        29.78S
WILLMAR        FAIR      68  30  24 SW8       29.83S
$$
MNZ033>034-036-042>043-049>051-058-059-240200-
   Central Minnesota

CITY           SKY/WX    TMP DP  RH WIND       PRES   REMARKS
ST CLOUD       CLEAR     46  38  73 NE13G23   29.91R
SAUK CENTRE    FAIR      45  37  72 NE16      29.89S
PAYNESVILLE    CLEAR     52  39  62 NE10      29.88R
AITKIN         CLOUDY    37  28  70 NE15G24   29.99F
PINE RIVER     CLOUDY    36  32  87 NE9       30.02F
BRAINERD       CLOUDY    39  32  76 NE14G24   29.97F
STAPLES        CLOUDY    39  32  75 NE9G17    29.94S
LONG PRAIRIE   FAIR      43  34  70 NE14      29.91S
LITTLE FALLS   CLEAR     41  32  70 NE9       29.94S
LITCHFIELD     CLEAR     61  46  59 E15       29.85S
BUFFALO        MOCLDY    55  40  57 NE12G18   29.88R
MAPLE LAKE     PTCLDY    55  42  63 NE12      29.89R
HUTCHINSON     CLOUDY    67  35  30 S7        29.86R
$$
MNZ037-044-045-052-053-240200-
   East Central Minnesota

CITY           SKY/WX    TMP DP  RH WIND       PRES   REMARKS
PRINCETON      PTCLDY    48  37  66 NE10G17   29.93R
MORA           PTCLDY    37  32  81 NE9G17    29.99S
CAMBRIDGE      PTCLDY    48  36  61 NE10G20   29.93R
RUSH CITY      CLOUDY    44  35  70 NE13G21   29.96R
MOOSE LAKE     CLOUDY    34  27  75 NE9       30.02S WCI  26
HINCKLEY       FAIR      39  34  81 NE15G21   29.99S
CLOQUET        CLOUDY    34  23  64 E16G23    30.05F WCI  23
MCGREGOR       PTCLDY    36  28  75 E13G21    30.02F
$$
MNZ071>073-080-081-089-090-097-098-240200-
   Southwest Minnesota

CITY           SKY/WX    TMP DP  RH WIND       PRES   REMARKS
MONTEVIDEO     CLEAR     66  30  26 SW9       29.80S
GRANITE FALLS  CLEAR     68  34  28 S10       29.82S
CANBY          CLEAR     69  29  22 CALM      29.78F
MARSHALL       CLEAR     67  30  25 SW12      29.80S
REDWOOD FALLS  CLEAR     67  28  23 S15       29.82S
OLIVIA         CLEAR     70  34  26 S13       29.83R
PIPESTONE      CLEAR     64  25  22 SW13      29.81F
WINDOM         CLEAR     66  27  22 S13       29.86R
WORTHINGTON    CLEAR     65  28  24 S15G23    29.85S
JACKSON        CLEAR     63  28  27 S13       29.87F
TRACY          CLEAR     67  32  27 S8        29.82F
SLAYTON        CLEAR     66  29  24 S16G22    29.83F
$$
MNZ065>067-074>077-082>085-091>093-240200-
   South Central Minnesota

CITY           SKY/WX    TMP DP  RH WIND       PRES   REMARKS
MANKATO        CLEAR     67  28  23 S7        29.87S
NEW ULM        CLEAR     66  28  24 SW12      29.85R
ST JAMES       CLEAR     64  30  27 S14       29.87S
FAIRMONT       CLEAR     65  28  24 S10       29.88F
GLENCOE        CLEAR     68  36  31 S9        29.84S
FARIBAULT      CLEAR     66  28  24 S7        29.89S
OWATONNA       CLEAR     66  27  22 S8        29.90S
WASECA         CLEAR     64  30  27 S9        29.90S
ALBERT LEA     CLOUDY    64  21  19 S7        29.90S
$$
MNZ078>079-086>088-094>096-240200-
   Southeast Minnesota

CITY           SKY/WX    TMP DP  RH WIND       PRES   REMARKS
ROCHESTER      CLOUDY    62  35  36 S9        29.93S
RED WING       PTCLDY    68  27  21 S6        29.88F
STANTON        MOCLDY    68  29  23 S7        29.87F
DODGE CENTER   CLEAR     63  30  29 S9        29.92S
WINONA         CLOUDY    68  34  28 S3        29.93S
AUSTIN         CLOUDY    63  30  29 S6        29.92S
PRESTON        CLOUDY    62  33  33 S7        29.94S
$$
ABBREVIATIONS USED IN REMARKS
   TC - TEMPERATURES IN CELSIUS
  WCI - WIND CHILL INDEX
   HX - HEAT INDEX
  VSB - VISIBILITY
$$




USA.gov is the U.S. government's official web portal to all federal, state and local government web resources and services.